This is the latest recevied weather packets stored in our database for station/object WX4LTG. If no packets are shown the sender has not sent any weather packets the latest 10 day(s).
| Time | Temp. | Humidity | Pressure | Rain* | Wind** | Luminosity | Snow |
|---|---|---|---|---|---|---|---|
| 1777647758 | 22.78° C | 40% | 1012.1 hPa | 0 mm | - | 253 W/m² | - |
| 1777647454 | 22.78° C | 40% | 1012.2 hPa | 0 mm | - | 237 W/m² | - |
| 1777647152 | 22.78° C | 40% | 1012.3 hPa | 0 mm | - | 225 W/m² | - |
| 1777646848 | 22.22° C | 41% | 1012.1 hPa | 0 mm | - | 211 W/m² | - |
| 1777646544 | 21.67° C | 42% | 1012.3 hPa | 0 mm | - | 197 W/m² | - |
| 1777646240 | 21.67° C | 42% | 1012.1 hPa | 0 mm | - | 183 W/m² | - |
| 1777645938 | 21.67° C | 42% | 1012 hPa | 0 mm | - | 171 W/m² | - |
| 1777645635 | 21.67° C | 42% | 1012.1 hPa | 0 mm | - | 160 W/m² | - |
| 1777645330 | 21.67° C | 42% | 1011.9 hPa | 0 mm | - | 145 W/m² | - |
| 1777645026 | 21.11° C | 43% | 1011.9 hPa | 0 mm | - | 133 W/m² | - |
| 1777644724 | 20.56° C | 44% | 1011.9 hPa | 0 mm | - | 120 W/m² | - |
| 1777644420 | 20.56° C | 44% | 1011.7 hPa | 0 mm | - | 108 W/m² | - |
| 1777644117 | 20° C | 44% | 1011.8 hPa | 0 mm | - | 98 W/m² | - |
| 1777643813 | 20° C | 44% | 1011.8 hPa | 0 mm | - | 88 W/m² | - |
| 1777643511 | 20° C | 45% | 1011.6 hPa | 0 mm | - | 79 W/m² | - |
| 1777643207 | 20° C | 45% | 1011.7 hPa | 0 mm | - | 69 W/m² | - |
| 1777642904 | 19.44° C | 46% | 1011.6 hPa | 0 mm | - | 61 W/m² | - |
| 1777642601 | 19.44° C | 45% | 1011.4 hPa | 0 mm | - | 54 W/m² | - |
| 1777642297 | 18.89° C | 46% | 1011.2 hPa | 0 mm | - | 47 W/m² | - |
| 1777641995 | 18.89° C | 45% | 1011.2 hPa | 0 mm | - | 40 W/m² | - |
| 1777641690 | 18.89° C | 46% | 1011.1 hPa | 0 mm | - | 34 W/m² | - |
| 1777641385 | 18.33° C | 46% | 1010.7 hPa | 0 mm | - | 29 W/m² | - |
| 1777641081 | 18.33° C | 47% | 1011 hPa | 0 mm | - | 24 W/m² | - |
| 1777640777 | 18.33° C | 47% | 1010.6 hPa | 0 mm | - | 20 W/m² | - |
| 1777640474 | 17.78° C | 47% | 1010.7 hPa | 0 mm | - | 16 W/m² | - |
* Rain latest hour (hover to see other rain measurements)
** Current wind speed in m/s (hover to see current wind gust speed)